EDT,Max TemperatureF,Mean TemperatureF,Min TemperatureF,Max Dew PointF,MeanDew PointF,Min DewpointF,Max Humidity, Mean Humidity, Min Humidity, Max Sea Level PressureIn, Mean Sea Level PressureIn, Min Sea Level PressureIn, Max VisibilityMiles, Mean VisibilityMiles, Min VisibilityMiles, Max Wind SpeedMPH, Mean Wind SpeedMPH, Max Gust SpeedMPH,PrecipitationIn, CloudCover, Events, WindDirDegrees
2012-9-1,93,82,71,79,74,72,100,75,49,30.23,30.16,30.09,10,9,3,12,3,,0.00,1,,234
2012-9-2,91,81,71,77,73,70,100,80,52,30.12,30.06,30.00,10,10,5,10,3,,0.00,1,Rain-Thunderstorm,236
2012-9-3,89,80,71,77,75,72,100,89,59,30.07,30.03,29.99,10,10,5,13,6,23,0.00,3,Rain-Thunderstorm,183
2012-9-4,86,80,73,77,74,72,100,92,66,30.04,30.01,29.96,10,10,7,12,5,17,0.00,5,Rain-Thunderstorm,162
2012-9-5,87,78,69,77,73,72,100,81,62,30.04,29.99,29.95,10,8,2,9,5,18,0.00,5,,207
2012-9-6,87,79,71,77,73,70,100,85,62,30.05,29.99,29.94,10,9,2,13,6,16,0.00,5,Rain-Thunderstorm,214
2012-9-7,89,80,71,79,75,72,100,80,59,30.02,29.96,29.91,10,9,0,12,1,17,0.00,4,Fog-Rain-Thunderstorm,86
2012-9-8,87,79,71,81,74,72,100,86,62,29.92,29.86,29.78,10,9,2,14,5,25,0.00,3,Rain-Thunderstorm,215
2012-9-9,80,71,62,70,62,57,100,72,47,30.04,29.94,29.84,10,9,2,12,6,17,0.00,4,,357
2012-9-10,82,70,59,63,59,54,100,71,39,30.18,30.12,30.04,10,10,7,10,2,16,0.00,1,,36
2012-9-11,80,68,57,64,61,57,100,83,51,30.32,30.25,30.18,10,10,10,8,2,,0.00,2,,72
2012-9-12,80,70,59,63,59,55,100,76,44,30.38,30.32,30.28,10,10,10,12,4,18,0.00,1,,64
2012-9-13,80,68,57,64,62,57,100,79,54,30.35,30.30,30.25,10,10,10,15,5,20,0.00,5,,49
2012-9-14,82,73,64,66,62,59,94,73,48,30.29,30.23,30.18,10,10,10,9,4,,0.00,3,,43
2012-9-15,86,73,60,68,63,61,100,76,43,30.23,30.18,30.13,10,10,10,8,1,,0.00,1,,89
2012-9-16,86,74,62,72,66,61,100,78,45,30.18,30.13,30.07,10,10,10,7,1,,0.00,2,,156
2012-9-17,86,77,68,77,71,68,100,88,58,30.12,30.04,29.95,10,10,5,15,4,22,0.00,4,Rain,147
2012-9-18,77,73,69,77,73,70,100,97,83,29.94,29.84,29.78,10,10,5,18,10,24,0.00,6,Rain-Thunderstorm,189
2012-9-19,78,71,64,68,64,61,100,77,57,30.14,30.03,29.90,10,10,4,13,5,18,0.00,3,,39
2012-9-20,78,68,57,66,62,57,100,82,57,30.18,30.13,30.09,10,10,10,10,4,,0.00,1,,75
2012-9-21,82,71,60,73,65,61,100,80,51,30.13,30.10,30.04,10,9,0,6,1,,0.00,2,Fog,159
2012-9-22,86,75,64,73,66,64,100,76,48,30.09,30.05,29.99,10,9,2,15,7,18,0.00,1,,219
2012-9-23,80,70,59,66,55,50,94,62,34,30.16,30.11,30.04,10,10,10,10,4,16,0.00,1,,345
2012-9-24,77,64,51,55,53,48,94,69,44,30.23,30.18,30.13,10,10,10,14,5,22,0.00,0,,56
2012-9-25,78,64,51,59,56,52,100,74,44,30.28,30.24,30.21,10,10,10,7,2,,0.00,1,,114
2012-9-26,84,68,53,63,57,52,100,73,35,30.27,30.23,30.18,10,10,10,6,2,,0.00,0,,164
2012-9-27,86,73,60,73,65,59,100,78,40,30.28,30.20,30.13,10,8,0,8,2,,0.00,3,Fog,257
2012-9-28,86,74,62,73,68,63,100,77,48,30.17,30.11,30.04,10,8,0,9,3,,0.00,1,Fog-Rain,216
2012-9-29,86,76,66,72,68,64,100,83,51,30.06,29.99,29.90,10,10,3,8,3,,0.00,1,Thunderstorm,242
2012-9-30,71,68,66,72,69,66,100,100,100,29.95,29.91,29.88,10,6,0,10,4,,0.00,7,Rain,57